| time (UTC) | temp F | wind direction | speed MPH | gust MPH | rain 1hr in | rain 24hr in | rain mn in | humidity % | barometer mb |
| 20260901031824 | 57 | 267 | 2.0 | 2.0 | 0.00 | 0.00 | 0.00 | 95 | 1012.3 |
| 20260901031320 | 57 | 304 | 3.0 | 3.0 | 0.00 | 0.00 | 0.00 | 95 | 1012.3 |
| 20260901030819 | 57 | 331 | 1.0 | 2.0 | 0.00 | 0.00 | 0.00 | 95 | 1012.2 |
| 20260901030315 | 57 | 268 | 1.0 | 2.0 | 0.00 | 0.00 | 0.00 | 95 | 1012.1 |
| 20260901025814 | 57 | 263 | 1.0 | 3.0 | 0.00 | 0.00 | 0.00 | 95 | 1012.0 |
| 20260901025309 | 57 | 280 | 1.0 | 2.0 | 0.00 | 0.00 | 0.00 | 94 | 1012.0 |
| 20260901024804 | 57 | 336 | 3.0 | 3.0 | 0.00 | 0.00 | 0.00 | 94 | 1012.0 |
| 20260901024303 | 57 | 5 | 3.0 | 6.0 | 0.00 | 0.00 | 0.00 | 94 | 1012.2 |
| 20260901023801 | 57 | 323 | 1.0 | 1.0 | 0.00 | 0.00 | 0.00 | 94 | 1012.3 |
| 20260901023256 | 57 | 287 | 5.0 | 8.0 | 0.00 | 0.00 | 0.00 | 93 | 1012.4 |
| 20260901022751 | 57 | 294 | 1.0 | 1.0 | 0.00 | 0.00 | 0.00 | 93 | 1012.1 |
| 20260901022247 | 57 | 325 | 1.0 | 1.0 | 0.00 | 0.00 | 0.00 | 92 | 1012.2 |
| 20260901021742 | 58 | 251 | 2.0 | 3.0 | 0.00 | 0.00 | 0.00 | 91 | 1012.1 |
| 20260901021238 | 58 | 234 | 3.0 | 5.0 | 0.00 | 0.00 | 0.00 | 91 | 1012.0 |
| 20260901020733 | 58 | 319 | 2.0 | 3.0 | 0.00 | 0.00 | 0.00 | 89 | 1012.0 |
| 20260901020228 | 59 | 336 | 1.0 | 1.0 | 0.00 | 0.00 | 0.00 | 89 | 1012.1 |
| 20260901015723 | 59 | 282 | 1.0 | 1.0 | 0.00 | 0.00 | 0.00 | 88 | 1012.0 |
| 20260901015219 | 59 | 280 | 3.0 | 5.0 | 0.00 | 0.00 | 0.00 | 87 | 1012.1 |
| 20260901014719 | 60 | 275 | 3.0 | 5.0 | 0.00 | 0.00 | 0.00 | 86 | 1012.0 |
| 20260901014215 | 60 | 252 | 4.0 | 6.0 | 0.00 | 0.00 | 0.00 | 85 | 1012.1 |
| 20260901013710 | 60 | 242 | 2.0 | 2.0 | 0.00 | 0.00 | 0.00 | 86 | 1011.9 |
| 20260901013206 | 60 | 289 | 5.0 | 6.0 | 0.00 | 0.00 | 0.00 | 85 | 1011.8 |
| 20260901012701 | 60 | 251 | 4.0 | 6.0 | 0.00 | 0.00 | 0.00 | 84 | 1011.9 |
| 20260901012155 | 61 | 283 | 2.0 | 3.0 | 0.00 | 0.00 | 0.00 | 84 | 1012.0 |
| 20260901011651 | 61 | 324 | 1.0 | 2.0 | 0.00 | 0.00 | 0.00 | 84 | 1011.9 |
| 20260901011150 | 61 | 289 | 2.0 | 2.0 | 0.00 | 0.00 | 0.00 | 83 | 1012.0 |
| 20260901010640 | 62 | 268 | 5.0 | 6.0 | 0.00 | 0.00 | 0.00 | 81 | 1011.8 |
| 20260901010139 | 62 | 307 | 1.0 | 2.0 | 0.00 | 0.00 | 0.00 | 80 | 1011.9 |
| 20260901005638 | 62 | 257 | 2.0 | 2.0 | 0.00 | 0.00 | 0.00 | 79 | 1011.8 |
| 20260901005134 | 62 | 257 | 3.0 | 3.0 | 0.00 | 0.00 | 0.00 | 79 | 1012.0 |
| 20260901004633 | 62 | 324 | 2.0 | 2.0 | 0.00 | 0.00 | 0.00 | 79 | 1011.9 |
| 20260901004128 | 63 | 302 | 2.0 | 2.0 | 0.00 | 0.00 | 0.00 | 78 | 1012.1 |
| 20260901003623 | 63 | 269 | 5.0 | 9.0 | 0.00 | 0.00 | 0.00 | 77 | 1012.0 |
| 20260901003122 | 64 | 254 | 3.0 | 3.0 | 0.00 | 0.00 | 0.00 | 75 | 1012.1 |
| 20260901002621 | 65 | 215 | 5.0 | 6.0 | 0.00 | 0.00 | 0.00 | 74 | 1012.1 |
| 20260901002116 | 66 | 322 | 1.0 | 1.0 | 0.00 | 0.00 | 0.00 | 74 | 1012.1 |
| 20260901001612 | 66 | 315 | 3.0 | 3.0 | 0.00 | 0.00 | 0.00 | 74 | 1012.1 |
| 20260901001107 | 66 | 321 | 3.0 | 5.0 | 0.00 | 0.00 | 0.00 | 73 | 1011.9 |
| 20260901000602 | 66 | 321 | 3.0 | 5.0 | 0.00 | 0.00 | 0.00 | 73 | 1011.9 |
| 20260901000057 | 67 | 259 | 2.0 | 2.0 | 0.00 | 0.00 | 0.00 | 72 | 1012.0 |
| 20260831235550 | 66 | 254 | 3.0 | 3.0 | 0.00 | 0.00 | 0.00 | 72 | 1011.8 |
| 20260831234801 | 65 | 323 | 2.0 | 2.0 | 0.00 | 0.00 | 0.00 | 74 | 1011.8 |
| 20260831234301 | 65 | 323 | 2.0 | 2.0 | 0.00 | 0.00 | 0.00 | 74 | 1011.8 |
| 20260831233757 | 66 | 312 | 1.0 | 2.0 | 0.00 | 0.00 | 0.00 | 73 | 1011.9 |
| 20260831233252 | 67 | 286 | 5.0 | 7.0 | 0.00 | 0.00 | 0.00 | 71 | 1012.0 |
| 20260831232747 | 67 | 313 | 1.0 | 1.0 | 0.00 | 0.00 | 0.00 | 71 | 1012.2 |
| 20260831232244 | 66 | 182 | 3.0 | 7.0 | 0.00 | 0.00 | 0.00 | 71 | 1012.2 |
| 20260831231739 | 66 | 296 | 7.0 | 10.0 | 0.00 | 0.00 | 0.00 | 72 | 1012.3 |
| 20260831231235 | 66 | 296 | 7.0 | 10.0 | 0.00 | 0.00 | 0.00 | 72 | 1012.3 |
| 20260831230730 | 68 | 244 | 3.0 | 3.0 | 0.00 | 0.00 | 0.00 | 70 | 1012.2 |
| 20260831230225 | 68 | 244 | 3.0 | 3.0 | 0.00 | 0.00 | 0.00 | 70 | 1012.2 |
| 20260831225724 | 68 | 258 | 4.0 | 5.0 | 0.00 | 0.00 | 0.00 | 70 | 1012.3 |
| 20260831225220 | 68 | 308 | 3.0 | 3.0 | 0.00 | 0.00 | 0.00 | 71 | 1012.4 |
| 20260831224714 | 67 | 210 | 1.0 | 3.0 | 0.00 | 0.00 | 0.00 | 72 | 1012.4 |
| 20260831224210 | 68 | 232 | 3.0 | 5.0 | 0.00 | 0.00 | 0.00 | 70 | 1012.5 |
| 20260831223705 | 69 | 228 | 5.0 | 6.0 | 0.00 | 0.00 | 0.00 | 69 | 1012.3 |
| 20260831223202 | 69 | 354 | 1.0 | 1.0 | 0.00 | 0.00 | 0.00 | 70 | 1012.6 |
| 20260831222657 | 67 | 290 | 4.0 | 6.0 | 0.00 | 0.00 | 0.00 | 71 | 1012.5 |
| 20260831222153 | 67 | 290 | 4.0 | 6.0 | 0.00 | 0.00 | 0.00 | 71 | 1012.5 |
| 20260831221648 | 67 | 290 | 4.0 | 6.0 | 0.00 | 0.00 | 0.00 | 71 | 1012.5 |
| 20260831221143 | 69 | 321 | 3.0 | 3.0 | 0.00 | 0.00 | 0.00 | 71 | 1012.9 |
| 20260831220638 | 69 | 242 | 2.0 | 3.0 | 0.00 | 0.00 | 0.00 | 69 | 1012.9 |
| 20260831220133 | 70 | 317 | 3.0 | 3.0 | 0.00 | 0.00 | 0.00 | 68 | 1012.7 |
| 20260831215628 | 71 | 333 | 0.0 | 0.0 | 0.00 | 0.00 | 0.00 | 66 | 1012.7 |
| 20260831215124 | 70 | 223 | 2.0 | 3.0 | 0.00 | 0.00 | 0.00 | 67 | 1012.9 |
| 20260831214622 | 69 | 227 | 4.0 | 6.0 | 0.00 | 0.00 | 0.00 | 68 | 1012.8 |
| 20260831214118 | 70 | 198 | 3.0 | 7.0 | 0.00 | 0.00 | 0.00 | 66 | 1012.9 |
| 20260831213614 | 69 | 233 | 3.0 | 3.0 | 0.00 | 0.00 | 0.00 | 67 | 1013.0 |
| 20260831213109 | 69 | 308 | 2.0 | 5.0 | 0.00 | 0.00 | 0.00 | 69 | 1013.0 |
| 20260831212605 | 69 | 308 | 2.0 | 5.0 | 0.00 | 0.00 | 0.00 | 69 | 1013.0 |
| 20260831212101 | 69 | 266 | 1.0 | 1.0 | 0.00 | 0.00 | 0.00 | 69 | 1013.0 |
| 20260831211554 | 69 | 252 | 4.0 | 7.0 | 0.00 | 0.00 | 0.00 | 69 | 1013.1 |
| 20260831211054 | 68 | 269 | 3.0 | 5.0 | 0.00 | 0.00 | 0.00 | 69 | 1013.2 |
| 20260831210549 | 70 | 322 | 3.0 | 6.0 | 0.00 | 0.00 | 0.00 | 67 | 1013.2 |
| 20260831210046 | 71 | 342 | 3.0 | 3.0 | 0.00 | 0.00 | 0.00 | 66 | 1013.0 |
| 20260831205545 | 71 | 285 | 1.0 | 2.0 | 0.00 | 0.00 | 0.00 | 66 | 1013.3 |
| 20260831205041 | 71 | 285 | 1.0 | 2.0 | 0.00 | 0.00 | 0.00 | 66 | 1013.3 |
| 20260831204455 | 71 | 255 | 3.0 | 5.0 | 0.00 | 0.00 | 0.00 | 65 | 1013.2 |
| 20260831203954 | 71 | 255 | 3.0 | 5.0 | 0.00 | 0.00 | 0.00 | 65 | 1013.2 |
| 20260831203454 | 71 | 285 | 3.0 | 3.0 | 0.00 | 0.00 | 0.00 | 63 | 1013.2 |
| 20260831202951 | 72 | 314 | 1.0 | 1.0 | 0.00 | 0.00 | 0.00 | 65 | 1013.2 |
| 20260831202447 | 72 | 314 | 1.0 | 1.0 | 0.00 | 0.00 | 0.00 | 65 | 1013.2 |
| 20260831201854 | 68 | 351 | 1.0 | 1.0 | 0.00 | 0.00 | 0.00 | 70 | 1013.0 |
| 20260831201352 | 68 | 351 | 1.0 | 1.0 | 0.00 | 0.00 | 0.00 | 70 | 1013.0 |
| 20260831200849 | 68 | 243 | 1.0 | 2.0 | 0.00 | 0.00 | 0.00 | 71 | 1013.1 |
| 20260831200343 | 68 | 243 | 1.0 | 2.0 | 0.00 | 0.00 | 0.00 | 71 | 1013.1 |
| 20260831195838 | 68 | 170 | 2.0 | 3.0 | 0.00 | 0.00 | 0.00 | 71 | 1013.4 |
| 20260831195147 | 66 | 253 | 4.0 | 5.0 | 0.00 | 0.00 | 0.00 | 75 | 1013.2 |
| 20260831194642 | 66 | 253 | 4.0 | 5.0 | 0.00 | 0.00 | 0.00 | 75 | 1013.2 |
| 20260831194137 | 66 | 216 | 0.0 | 1.0 | 0.00 | 0.00 | 0.00 | 74 | 1013.5 |
| 20260831193631 | 66 | 216 | 0.0 | 1.0 | 0.00 | 0.00 | 0.00 | 74 | 1013.5 |
| 20260831193127 | 67 | 256 | 3.0 | 5.0 | 0.00 | 0.00 | 0.00 | 73 | 1013.6 |
| 20260831192616 | 64 | 318 | 2.0 | 2.0 | 0.00 | 0.00 | 0.00 | 79 | 1013.8 |
| 20260831192112 | 64 | 318 | 2.0 | 2.0 | 0.00 | 0.00 | 0.00 | 79 | 1013.8 |
| 20260831191607 | 64 | 125 | 1.0 | 2.0 | 0.00 | 0.00 | 0.00 | 80 | 1013.8 |
| 20260831191057 | 62 | 26 | 1.0 | 1.0 | 0.00 | 0.00 | 0.00 | 82 | 1013.8 |
| 20260831190552 | 62 | 92 | 4.0 | 6.0 | 0.00 | 0.00 | 0.00 | 81 | 1013.7 |
| 20260831190050 | 62 | 287 | 0.0 | 0.0 | 0.00 | 0.00 | 0.00 | 82 | 1013.5 |
| 20260831185546 | 61 | 44 | 2.0 | 2.0 | 0.00 | 0.00 | 0.00 | 86 | 1013.7 |
| 20260831185042 | 59 | 7 | 1.0 | 1.0 | 0.00 | 0.00 | 0.00 | 88 | 1013.8 |
| 20260831184541 | 59 | 74 | 2.0 | 3.0 | 0.00 | 0.00 | 0.00 | 89 | 1013.9 |
| 20260831184037 | 58 | 166 | 2.0 | 2.0 | 0.00 | 0.00 | 0.00 | 90 | 1013.9 |
| 20260831183536 | 58 | 59 | 1.0 | 1.0 | 0.00 | 0.00 | 0.00 | 90 | 1013.9 |
| 20260831183031 | 57 | 343 | 0.0 | 1.0 | 0.00 | 0.00 | 0.00 | 93 | 1014.0 |
| 20260831182525 | 56 | 164 | 3.0 | 3.0 | 0.00 | 0.00 | 0.00 | 95 | 1013.9 |
| 20260831182021 | 56 | 5 | 1.0 | 2.0 | 0.00 | 0.00 | 0.00 | 96 | 1014.0 |
| 20260831181516 | 55 | 30 | 1.0 | 1.0 | 0.00 | 0.00 | 0.00 | 99 | 1013.8 |
| 20260831181015 | 54 | 50 | 2.0 | 2.0 | 0.00 | 0.00 | 0.00 | 99 | 1013.9 |
| 20260831180515 | 54 | 108 | 3.0 | 3.0 | 0.00 | 0.00 | 0.00 | 99 | 1014.1 |
| 20260831180011 | 54 | 20 | 1.0 | 1.0 | 0.00 | 0.00 | 0.00 | 99 | 1013.9 |
| 20260831175506 | 53 | 23 | 1.0 | 1.0 | 0.00 | 0.00 | 0.00 | 99 | 1013.8 |
| 20260831175003 | 53 | 23 | 1.0 | 1.0 | 0.00 | 0.00 | 0.00 | 99 | 1013.8 |
| 20260831174457 | 53 | 29 | 2.0 | 2.0 | 0.00 | 0.00 | 0.00 | 99 | 1014.0 |
| 20260831173956 | 53 | 29 | 2.0 | 2.0 | 0.00 | 0.00 | 0.00 | 99 | 1014.0 |
| 20260831173454 | 53 | 75 | 3.0 | 3.0 | 0.00 | 0.00 | 0.00 | 99 | 1013.9 |
| 20260831170830 | 53 | 8 | 0.0 | 1.0 | 0.00 | 0.00 | 0.00 | 99 | 1013.7 |
| 20260831170326 | 53 | 8 | 0.0 | 1.0 | 0.00 | 0.00 | 0.00 | 99 | 1013.7 |
| 20260831165822 | 53 | 43 | 1.0 | 2.0 | 0.00 | 0.00 | 0.00 | 99 | 1013.5 |
| 20260831165318 | 52 | 329 | 0.0 | 0.0 | 0.00 | 0.00 | 0.00 | 99 | 1013.4 |
| 20260831164814 | 52 | 356 | 0.0 | 1.0 | 0.00 | 0.00 | 0.00 | 99 | 1013.4 |
| 20260831164310 | 52 | 8 | 0.0 | 0.0 | 0.00 | 0.00 | 0.00 | 99 | 1013.3 |
| 20260831163805 | 52 | 23 | 0.0 | 1.0 | 0.00 | 0.00 | 0.00 | 99 | 1013.2 |
| 20260831163301 | 52 | 350 | 0.0 | 0.0 | 0.00 | 0.00 | 0.00 | 99 | 1013.3 |
| 20260831162759 | 52 | 322 | 0.0 | 0.0 | 0.00 | 0.00 | 0.00 | 99 | 1013.4 |
| 20260831162254 | 52 | 316 | 1.0 | 1.0 | 0.00 | 0.00 | 0.00 | 99 | 1013.6 |
| 20260831161748 | 52 | 10 | 0.0 | 0.0 | 0.00 | 0.00 | 0.00 | 99 | 1013.4 |
| 20260831161245 | 52 | 330 | 0.0 | 0.0 | 0.00 | 0.00 | 0.00 | 99 | 1013.4 |
| 20260831160744 | 52 | 330 | 0.0 | 0.0 | 0.00 | 0.00 | 0.00 | 99 | 1013.4 |
| 20260831160239 | 52 | 319 | 0.0 | 0.0 | 0.00 | 0.00 | 0.00 | 99 | 1013.4 |
| 20260831155738 | 52 | 319 | 0.0 | 0.0 | 0.00 | 0.00 | 0.00 | 99 | 1013.3 |
| 20260831154446 | 52 | 339 | 0.0 | 0.0 | 0.00 | 0.00 | 0.00 | 99 | 1013.3 |
| 20260831153944 | 52 | 339 | 0.0 | 0.0 | 0.00 | 0.00 | 0.00 | 99 | 1013.3 |
| 20260831153440 | 51 | 23 | 1.0 | 1.0 | 0.00 | 0.00 | 0.00 | 99 | 1012.9 |
| 20260831152936 | 51 | 23 | 1.0 | 1.0 | 0.00 | 0.00 | 0.00 | 99 | 1012.9 |
| 20260831150655 | 52 | 336 | 0.0 | 0.0 | 0.00 | 0.00 | 0.00 | 99 | 1012.9 |
| 20260831150151 | 52 | 336 | 0.0 | 0.0 | 0.00 | 0.00 | 0.00 | 99 | 1012.9 |
| 20260831145649 | 52 | 336 | 0.0 | 0.0 | 0.00 | 0.00 | 0.00 | 99 | 1012.9 |
| 20260831144838 | 51 | 326 | 0.0 | 0.0 | 0.00 | 0.00 | 0.00 | 99 | 1012.7 |
| 20260831144334 | 51 | 326 | 0.0 | 0.0 | 0.00 | 0.00 | 0.00 | 99 | 1012.7 |
| 20260831143829 | 51 | 326 | 0.0 | 0.0 | 0.00 | 0.00 | 0.00 | 99 | 1012.7 |
| 20260831143324 | 51 | 347 | 1.0 | 1.0 | 0.00 | 0.00 | 0.00 | 99 | 1012.4 |
| 20260831142819 | 51 | 347 | 1.0 | 1.0 | 0.00 | 0.00 | 0.00 | 99 | 1012.4 |
| 20260831142315 | 51 | 306 | 0.0 | 0.0 | 0.00 | 0.00 | 0.00 | 99 | 1012.4 |
| 20260831141815 | 51 | 359 | 0.0 | 0.0 | 0.00 | 0.00 | 0.00 | 99 | 1012.4 |
| 20260831141309 | 51 | 359 | 0.0 | 0.0 | 0.00 | 0.00 | 0.00 | 99 | 1012.4 |
| 20260831140804 | 51 | 345 | 0.0 | 0.0 | 0.00 | 0.00 | 0.00 | 99 | 1012.2 |
| 20260831140258 | 51 | 345 | 0.0 | 0.0 | 0.00 | 0.00 | 0.00 | 99 | 1012.2 |
| 20260831135756 | 51 | 349 | 0.0 | 0.0 | 0.00 | 0.00 | 0.00 | 99 | 1012.0 |
| 20260831135252 | 51 | 349 | 0.0 | 0.0 | 0.00 | 0.00 | 0.00 | 99 | 1012.0 |
| 20260831134747 | 51 | 0 | 0.0 | 1.0 | 0.00 | 0.00 | 0.00 | 99 | 1012.1 |
| 20260831133458 | 51 | 50 | 2.0 | 2.0 | 0.00 | 0.00 | 0.00 | 99 | 1011.9 |
| 20260831132953 | 51 | 50 | 2.0 | 2.0 | 0.00 | 0.00 | 0.00 | 99 | 1011.9 |
| 20260831132449 | 51 | 19 | 2.0 | 2.0 | 0.00 | 0.00 | 0.00 | 99 | 1011.9 |
| 20260831131948 | 51 | 19 | 2.0 | 2.0 | 0.00 | 0.00 | 0.00 | 99 | 1011.9 |
| 20260831131443 | 51 | 3 | 0.0 | 0.0 | 0.00 | 0.00 | 0.00 | 99 | 1012.1 |
| 20260831130938 | 51 | 38 | 1.0 | 1.0 | 0.00 | 0.00 | 0.00 | 99 | 1011.9 |
| 20260831130433 | 51 | 37 | 2.0 | 2.0 | 0.00 | 0.00 | 0.00 | 99 | 1011.8 |
| 20260831125928 | 51 | 37 | 2.0 | 2.0 | 0.00 | 0.00 | 0.00 | 99 | 1011.8 |
| 20260831125427 | 51 | 49 | 1.0 | 1.0 | 0.00 | 0.00 | 0.00 | 99 | 1012.0 |
| 20260831124923 | 51 | 21 | 1.0 | 1.0 | 0.00 | 0.00 | 0.00 | 99 | 1011.8 |
| 20260831124419 | 51 | 5 | 0.0 | 0.0 | 0.00 | 0.00 | 0.00 | 99 | 1011.9 |
| 20260831123915 | 51 | 16 | 0.0 | 1.0 | 0.00 | 0.00 | 0.00 | 99 | 1011.7 |
| 20260831123413 | 51 | 38 | 2.0 | 2.0 | 0.00 | 0.00 | 0.00 | 99 | 1011.9 |
| 20260831122908 | 51 | 23 | 1.0 | 1.0 | 0.00 | 0.00 | 0.00 | 99 | 1011.9 |
| 20260831122404 | 51 | 188 | 1.0 | 2.0 | 0.00 | 0.00 | 0.00 | 99 | 1012.0 |
| 20260831121858 | 51 | 8 | 0.0 | 0.0 | 0.00 | 0.00 | 0.00 | 99 | 1012.0 |
| 20260831121354 | 51 | 3 | 0.0 | 0.0 | 0.00 | 0.00 | 0.00 | 99 | 1011.9 |
| 20260831120849 | 51 | 10 | 1.0 | 1.0 | 0.00 | 0.00 | 0.00 | 99 | 1011.9 |
| 20260831120343 | 51 | 317 | 0.0 | 0.0 | 0.00 | 0.00 | 0.00 | 99 | 1012.0 |
| 20260831115838 | 51 | 317 | 0.0 | 0.0 | 0.00 | 0.00 | 0.00 | 99 | 1012.0 |
| 20260831115207 | 51 | 301 | 0.0 | 0.0 | 0.00 | 0.00 | 0.00 | 99 | 1011.9 |
| 20260831114706 | 51 | 301 | 0.0 | 0.0 | 0.00 | 0.00 | 0.00 | 99 | 1011.9 |
| 20260831114205 | 51 | 301 | 0.0 | 0.0 | 0.00 | 0.00 | 0.00 | 99 | 1011.8 |
| 20260831113701 | 51 | 260 | 1.0 | 2.0 | 0.00 | 0.00 | 0.00 | 99 | 1012.0 |
| 20260831113155 | 51 | 321 | 0.0 | 0.0 | 0.00 | 0.00 | 0.00 | 99 | 1011.8 |
| 20260831112654 | 51 | 297 | 1.0 | 1.0 | 0.00 | 0.00 | 0.00 | 99 | 1011.9 |
| 20260831112150 | 51 | 297 | 1.0 | 1.0 | 0.00 | 0.00 | 0.00 | 99 | 1011.9 |
| 20260831111646 | 51 | 303 | 0.0 | 0.0 | 0.00 | 0.00 | 0.00 | 99 | 1011.9 |
| 20260831111142 | 51 | 306 | 0.0 | 0.0 | 0.00 | 0.00 | 0.00 | 99 | 1011.8 |
| 20260831110637 | 51 | 289 | 0.0 | 0.0 | 0.00 | 0.00 | 0.00 | 99 | 1011.8 |
| 20260831110132 | 51 | 289 | 0.0 | 1.0 | 0.00 | 0.00 | 0.00 | 99 | 1011.8 |
| 20260831105631 | 51 | 279 | 0.0 | 1.0 | 0.00 | 0.00 | 0.00 | 99 | 1011.9 |
| 20260831105126 | 51 | 296 | 0.0 | 0.0 | 0.00 | 0.00 | 0.00 | 99 | 1011.8 |
| 20260831104622 | 51 | 296 | 0.0 | 0.0 | 0.00 | 0.00 | 0.00 | 99 | 1011.8 |
| 20260831104118 | 51 | 283 | 0.0 | 0.0 | 0.00 | 0.00 | 0.00 | 99 | 1011.8 |
| 20260831103613 | 51 | 283 | 0.0 | 0.0 | 0.00 | 0.00 | 0.00 | 99 | 1011.8 |
| 20260831103108 | 51 | 282 | 0.0 | 0.0 | 0.00 | 0.00 | 0.00 | 99 | 1011.7 |
| 20260831102603 | 50 | 289 | 0.0 | 0.0 | 0.00 | 0.00 | 0.00 | 99 | 1011.7 |
| 20260831102058 | 50 | 289 | 0.0 | 0.0 | 0.00 | 0.00 | 0.00 | 99 | 1011.6 |
| 20260831101557 | 50 | 289 | 0.0 | 0.0 | 0.00 | 0.00 | 0.00 | 99 | 1011.6 |
| 20260831101054 | 50 | 288 | 0.0 | 0.0 | 0.00 | 0.00 | 0.00 | 99 | 1011.5 |
| 20260831100549 | 50 | 288 | 0.0 | 0.0 | 0.00 | 0.00 | 0.00 | 99 | 1011.5 |
| 20260831100045 | 49 | 289 | 0.0 | 0.0 | 0.00 | 0.00 | 0.00 | 99 | 1011.5 |
| 20260831094552 | 49 | 289 | 0.0 | 0.0 | 0.00 | 0.00 | 0.00 | 99 | 1011.5 |
| 20260831094048 | 49 | 289 | 0.0 | 0.0 | 0.00 | 0.00 | 0.00 | 99 | 1011.5 |
| 20260831093543 | 49 | 289 | 0.0 | 0.0 | 0.00 | 0.00 | 0.00 | 99 | 1011.6 |
| 20260831093039 | 49 | 292 | 0.0 | 0.0 | 0.00 | 0.00 | 0.00 | 99 | 1011.5 |
| 20260831092535 | 50 | 298 | 0.0 | 0.0 | 0.00 | 0.00 | 0.00 | 99 | 1011.4 |
| 20260831092031 | 50 | 298 | 0.0 | 0.0 | 0.00 | 0.00 | 0.00 | 99 | 1011.4 |
| 20260831091530 | 50 | 298 | 0.0 | 0.0 | 0.00 | 0.00 | 0.00 | 99 | 1011.4 |
| 20260831091026 | 50 | 301 | 0.0 | 0.0 | 0.00 | 0.00 | 0.00 | 99 | 1011.5 |
| 20260831090521 | 50 | 301 | 0.0 | 0.0 | 0.00 | 0.00 | 0.00 | 99 | 1011.5 |
| 20260831090018 | 50 | 301 | 0.0 | 0.0 | 0.00 | 0.00 | 0.00 | 99 | 1011.5 |
| 20260831085512 | 50 | 301 | 0.0 | 0.0 | 0.00 | 0.00 | 0.00 | 99 | 1011.6 |
| 20260831085007 | 50 | 306 | 0.0 | 0.0 | 0.00 | 0.00 | 0.00 | 99 | 1011.7 |
| 20260831084503 | 50 | 306 | 0.0 | 0.0 | 0.00 | 0.00 | 0.00 | 99 | 1011.6 |
| 20260831083959 | 49 | 314 | 0.0 | 0.0 | 0.00 | 0.00 | 0.00 | 99 | 1011.8 |
| 20260831083454 | 49 | 314 | 0.0 | 0.0 | 0.00 | 0.00 | 0.00 | 99 | 1011.8 |
| 20260831082953 | 49 | 314 | 0.0 | 0.0 | 0.00 | 0.00 | 0.00 | 98 | 1012.0 |
| 20260831082448 | 49 | 314 | 0.0 | 0.0 | 0.00 | 0.00 | 0.00 | 98 | 1012.0 |
| 20260831081942 | 49 | 314 | 0.0 | 0.0 | 0.00 | 0.00 | 0.00 | 98 | 1011.8 |
| 20260831081201 | 49 | 314 | 0.0 | 0.0 | 0.00 | 0.00 | 0.00 | 98 | 1011.9 |
| 20260831080657 | 49 | 314 | 0.0 | 0.0 | 0.00 | 0.00 | 0.00 | 98 | 1011.9 |
| 20260831080156 | 49 | 314 | 0.0 | 0.0 | 0.00 | 0.00 | 0.00 | 98 | 1011.9 |
| 20260831075652 | 49 | 314 | 0.0 | 0.0 | 0.00 | 0.00 | 0.00 | 98 | 1011.8 |
| 20260831075148 | 50 | 314 | 0.0 | 0.0 | 0.00 | 0.00 | 0.00 | 98 | 1011.8 |
| 20260831074646 | 50 | 314 | 0.0 | 0.0 | 0.00 | 0.00 | 0.00 | 98 | 1011.7 |
| 20260831064110 | 51 | 315 | 0.0 | 0.0 | 0.00 | 0.00 | 0.00 | 95 | 1011.7 |
| 20260831063606 | 51 | 315 | 0.0 | 0.0 | 0.00 | 0.00 | 0.00 | 95 | 1011.7 |
| 20260831063101 | 51 | 315 | 0.0 | 0.0 | 0.00 | 0.00 | 0.00 | 95 | 1011.7 |
| 20260831062555 | 52 | 315 | 0.0 | 0.0 | 0.00 | 0.00 | 0.00 | 94 | 1012.0 |
| 20260831062055 | 52 | 315 | 0.0 | 0.0 | 0.00 | 0.00 | 0.00 | 94 | 1012.0 |
| 20260831061552 | 52 | 316 | 0.0 | 0.0 | 0.00 | 0.00 | 0.00 | 94 | 1011.8 |
| 20260831055452 | 52 | 286 | 0.0 | 0.0 | 0.00 | 0.00 | 0.00 | 91 | 1011.7 |
| 20260831054948 | 52 | 286 | 0.0 | 0.0 | 0.00 | 0.00 | 0.00 | 91 | 1011.7 |
| 20260831054447 | 52 | 286 | 0.0 | 0.0 | 0.00 | 0.00 | 0.00 | 91 | 1011.7 |
| 20260831053946 | 53 | 286 | 0.0 | 0.0 | 0.00 | 0.00 | 0.00 | 91 | 1011.7 |
| 20260831053357 | 53 | 286 | 0.0 | 0.0 | 0.00 | 0.00 | 0.00 | 90 | 1011.7 |
| 20260831052852 | 53 | 286 | 0.0 | 0.0 | 0.00 | 0.00 | 0.00 | 90 | 1011.7 |
| 20260831052346 | 54 | 286 | 0.0 | 0.0 | 0.00 | 0.00 | 0.00 | 90 | 1011.7 |
| 20260831051844 | 54 | 286 | 0.0 | 0.0 | 0.00 | 0.00 | 0.00 | 90 | 1011.7 |
| 20260831044553 | 56 | 287 | 0.0 | 0.0 | 0.00 | 0.00 | 0.00 | 86 | 1011.9 |
| 20260831044048 | 56 | 287 | 0.0 | 0.0 | 0.00 | 0.00 | 0.00 | 86 | 1011.9 |
| 20260831043543 | 57 | 287 | 0.0 | 0.0 | 0.00 | 0.00 | 0.00 | 85 | 1011.7 |
| 20260831043038 | 57 | 287 | 0.0 | 0.0 | 0.00 | 0.00 | 0.00 | 85 | 1011.9 |
| 20260831041651 | 58 | 285 | 0.0 | 0.0 | 0.00 | 0.00 | 0.00 | 82 | 1011.5 |
| 20260831041150 | 58 | 285 | 0.0 | 0.0 | 0.00 | 0.00 | 0.00 | 82 | 1011.5 |
| 20260831040645 | 58 | 285 | 0.0 | 0.0 | 0.00 | 0.00 | 0.00 | 82 | 1011.5 |
| 20260831034753 | 60 | 285 | 0.0 | 0.0 | 0.00 | 0.00 | 0.00 | 76 | 1011.4 |
| 20260831034248 | 60 | 285 | 0.0 | 0.0 | 0.00 | 0.00 | 0.00 | 76 | 1011.4 |
| 20260831033743 | 60 | 285 | 0.0 | 0.0 | 0.00 | 0.00 | 0.00 | 77 | 1011.3 |
| 20260831033242 | 60 | 285 | 0.0 | 0.0 | 0.00 | 0.00 | 0.00 | 76 | 1011.3 |